Location: Newark
(0.5300°S, 127.4800°E)
Time: 23:44:08
(UTC+00:00)

A-11 Canister half - Pass Details

Date: 21 September 2019
Orbit: 1514 x 1686 km, 47.2° (Epoch: 13 October)

Event Time Altitude Azimuth Distance (km) Brightness Sun altitude
Rises 09:16:29 0° 333° (NNW) 4,698 12.0 1.7°
Reaches altitude 10° 09:19:41 10° 340° (NNW) 3,737 11.4 0.9°
Maximum altitude 09:28:40 47° 51° (NE) 2,034 9.4 -1.3°
Drops below altitude 10° 09:37:58 10° 121° (ESE) 3,877 10.6 -3.7°
Sets 09:41:19 0° 127° (SE) 4,887 11.1 -4.5°
